Probability
0 0 0 0 0 0 0 0 0 0 0 0 0 0 0 0 0 0 0 0 1 2 3 4 4 4 4 4 4 3 1 1 2 1 0 0 0 0 0 0 0 0 0
0 0 0 0 0 0 0 0 0 0 0 0 0 0 0 0 0 0 0 0 0 1 3 4 5 5 5 5 4 3 1 1 2 1 0 0 0 0 0 0 0 0 0
0 0 0 0 0 0 0 0 0 0 0 0 0 0 0 0 0 0 0 0 0 0 1 3 4 4 5 5 4 3 1 1 1 1 0 0 0 0 0 0 0 0 0
0 0 0 0 0 0 0 0 0 0 0 0 0 0 0 0 0 0 0 0 0 0 0 1 2 3 4 5 5 4 2 1 1 0 0 0 0 0 0 0 0 0 0
0 0 0 0 0 0 0 0 0 0 0 0 0 0 0 0 0 0 0 0 0 0 0 0 1 1 3 4 5 5 4 3 2 1 0 0 0 0 0 0 0 0 0
0 0 0 0 0 0 0 0 0 0 0 0 0 0 0 0 0 0 0 0 0 0 0 0 0 1 2 3 4 5 4 3 3 1 1 0 0 0 0 0 0 0 0
0 0 0 0 0 0 0 0 0 0 0 0 0 0 0 0 0 0 0 0 0 0 0 0 0 0 1 2 3 4 4 3 3 2 2 1 0 0 0 0 0 0 0
0 0 0 0 0 0 0 0 0 0 0 0 0 0 0 0 0 0 0 0 0 0 0 0 0 0 0 1 1 2 3 3 2 2 2 1 0 0 0 0 0 0 0
0 0 0 0 0 1 1 1 0 0 0 0 0 0 0 0 0 0 0 0 0 0 0 0 0 0 0 0 0 1 1 1 1 1 1 1 0 0 0 0 0 0 0
0 0 0 0 0 1 2 2 1 0 0 0 0 0 0 0 0 0 0 0 0 0 0 0 0 0 0 0 0 0 0 0 0 0 0 0 0 0 0 0 0 0 0
0 0 0 0 0 0 1 2 2 1 0 0 0 0 0 0 0 0 0 0 0 0 0 0 0 0 0 0 0 0 0 0 0 0 0 0 0 0 0 0 0 0 0
0 0 0 0 0 0 0 1 2 2 1 0 0 0 0 0 0 0 0 0 0 0 0 0 0 0 0 0 0 0 0 0 0 0 0 0 0 0 0 0 0 0 0
0 0 0 0 0 0 0 1 2 2 1 0 0 0 0 0 0 0 0 0 0 0 0 0 0 0 0 0 0 0 0 0 0 0 0 0 0 0 0 0 0 0 0
0 0 0 0 0 0 0 0 1 1 1 0 0 0 0 0 0 0 0 0 0 0 0 0 0 0 0 0 0 0 0 0 0 0 0 0 0 0 0 0 0 0 0
0 0 0 0 0 0 0 0 0 0 0 0 0 0 0 0 0 0 0 0 0 0 0 0 0 0 0 0 0 0 0 0 0 0 0 0 0 0 0 0 0 0 0
0 0 0 0 0 0 0 0 0 0 0 0 0 0 0 0 0 0 0 0 0 0 0 0 0 0 0 0 0 0 0 0 0 0 0 0 0 0 0 0 0 0 0
0 0 0 0 0 0 0 0 0 0 0 0 0 0 0 0 0 0 0 0 0 0 0 0 0 0 0 0 0 0 0 0 0 0 0 0 0 0 0 0 0 0 0
0 0 0 0 0 0 0 0 0 0 0 0 0 0 0 0 0 0 0 0 0 0 0 0 0 0 0 0 0 0 0 0 0 0 0 0 0 0 0 0 0 0 0
0 0 0 0 0 0 0 0 0 0 0 0 0 0 0 0 0 0 0 0 0 0 0 0 0 0 0 0 0 0 0 0 0 0 0 0 0 0 0 0 0 0 0
0 0 0 0 0 0 0 0 0 0 0 0 0 0 0 0 0 0 0 0 0 0 0 0 0 0 0 0 0 0 0 0 0 0 0 0 0 0 0 0 0 0 0
0 0 0 0 0 0 0 0 0 0 0 0 0 0 0 0 0 0 0 0 0 0 0 0 0 0 0 0 0 0 0 0 0 0 0 0 0 0 0 0 0 0 0
0 0 0 0 0 0 0 0 0 0 0 0 0 0 0 0 0 0 0 0 0 0 0 0 0 0 0 0 0 0 0 0 0 0 0 0 0 0 0 0 0 0 0
0 0 0 0 0 0 0 0 0 0 0 0 0 0 0 0 0 0 0 0 0 0 0 0 0 0 0 0 0 0 0 0 0 0 0 0 0 0 0 0 0 0 0
0 0 0 0 0 0 0 0 0 0 0 0 0 0 0 0 0 0 0 0 0 0 0 0 0 0 0 0 0 0 0 0 0 0 0 0 0 0 0 0 0 0 0
0 0 0 0 0 0 0 0 0 0 0 0 0 0 0 0 0 0 0 0 0 0 0 0 0 0 0 0 0 0 0 0 0 0 0 0 0 0 0 0 0 0 0
0 0 0 0 0 0 0 0 0 0 0 0 0 0 0 0 0 0 0 0 0 0 0 0 0 0 0 0 0 0 0 0 0 0 0 0 0 0 0 0 0 0 0
Wind_Speed
2 2 1 2 2 2 2 2 2 3 3 3 3 3 3 3 2 2 3 6 6 5 3 3 3 3 3 4 3 3 3 3 3 3 4 4 4 4 5 5 5 5 6
2 2 2 2 1 1 1 2 3 2 2 2 2 2 2 2 2 2 2 4 6 6 4 3 3 3 3 3 3 3 2 2 3 3 3 3 3 3 4 4 5 5 5
2 2 2 2 1 1 2 2 3 2 2 2 2 2 1 1 1 2 2 2 3 5 6 4 4 3 3 3 3 3 4 3 3 3 3 4 3 3 3 4 4 4 5
2 2 2 1 1 2 2 2 2 2 2 2 1 1 0 1 1 1 1 2 2 2 4 6 5 4 3 3 3 3 3 4 3 4 4 4 4 4 4 4 4 4 5
2 2 1 1 2 2 2 2 2 2 2 1 1 0 0 0 0 1 1 1 1 1 1 4 5 6 5 4 4 4 3 3 3 3 4 4 4 4 4 5 5 5 5
2 2 2 1 2 2 2 2 2 2 1 1 1 1 1 1 0 0 1 1 1 1 1 2 2 4 6 5 5 4 4 4 4 4 3 4 4 4 4 5 5 6 6
2 2 2 2 1 1 2 2 2 2 1 1 1 1 1 0 0 0 0 0 1 1 1 1 1 1 2 6 6 5 5 5 5 5 4 4 5 5 5 5 6 6 6
2 1 2 1 1 1 1 2 2 2 1 1 1 1 1 2 1 1 1 1 1 1 0 1 1 1 1 2 4 6 6 5 5 5 5 5 5 5 6 6 6 7 7
2 2 1 1 1 1 2 2 2 2 2 1 0 2 2 2 1 1 1 1 1 1 1 1 1 1 2 2 2 5 6 6 6 6 6 5 5 6 6 7 7 7 7
1 1 1 1 1 1 1 1 2 1 2 2 0 0 1 1 1 2 1 1 1 1 2 2 2 2 2 2 3 5 6 6 6 6 7 7 6 6 7 7 7 7 7
1 1 1 1 0 0 1 1 1 1 1 2 2 1 0 0 1 1 2 2 2 2 2 2 2 2 2 2 2 4 5 6 6 7 7 7 7 7 7 8 8 8 8
1 1 1 0 0 0 0 0 1 1 1 1 1 1 1 1 1 2 2 2 3 2 2 2 2 3 3 2 3 5 5 6 6 7 7 7 7 7 7 7 8 8 9
1 1 1 0 0 0 0 1 1 1 2 2 2 2 1 1 1 1 2 2 3 3 2 2 2 2 2 2 3 5 5 6 6 7 7 7 7 7 7 8 8 9 9
1 0 0 0 0 0 0 0 1 1 1 2 2 2 2 2 1 1 2 1 2 2 2 3 2 2 2 2 3 4 4 6 6 7 7 7 8 7 7 8 8 8 9
0 0 0 0 0 0 0 0 0 1 1 1 2 2 2 1 1 1 1 2 2 3 4 2 2 2 2 2 3 3 3 6 7 7 7 8 8 8 7 8 8 8 8
0 0 0 0 0 0 0 0 0 0 0 1 1 1 1 1 1 1 2 2 2 3 4 3 3 3 3 3 4 3 4 7 7 8 8 8 8 8 7 7 8 8 8
0 0 0 0 0 0 0 0 0 1 1 1 1 2 2 1 1 1 1 2 2 2 5 4 3 3 3 3 3 3 3 4 4 7 8 8 8 8 8 7 7 8 8
1 1 1 1 1 1 1 1 1 1 2 2 2 2 2 1 1 2 2 2 3 3 4 5 4 3 3 3 3 3 3 3 3 6 8 8 8 8 8 7 7 7 7
1 1 1 1 1 1 1 1 2 2 2 2 2 3 2 2 2 2 2 3 3 3 3 4 4 3 3 3 3 3 3 3 3 5 6 7 7 8 8 7 7 7 7
1 1 1 1 1 1 1 2 2 2 2 2 2 2 3 3 3 3 3 3 3 3 3 3 4 3 3 3 2 3 4 3 3 3 5 5 6 7 8 7 7 7 6
1 1 1 1 1 1 2 2 2 2 2 2 2 2 3 3 4 3 3 3 3 3 3 3 3 3 3 2 3 2 4 4 4 3 3 3 4 4 5 6 6 6 6
1 1 2 2 2 2 3 3 2 2 2 2 2 2 3 3 3 4 5 4 4 4 4 3 3 4 4 4 3 3 3 4 4 2 3 5 3 4 4 3 5 6 6
2 2 2 2 3 4 4 4 3 2 2 2 2 2 2 2 2 3 4 5 4 6 6 4 5 5 5 4 4 4 4 4 5 4 4 6 3 4 4 4 7 7 7
2 2 2 2 2 3 4 4 4 2 2 2 3 3 3 3 3 3 3 3 3 3 5 4 4 5 5 4 4 4 5 4 5 3 3 4 3 4 4 4 7 7 6
2 2 2 2 3 3 5 5 4 2 2 2 2 2 3 3 5 5 3 3 3 3 4 5 5 6 7 7 5 3 3 3 4 3 2 2 3 4 4 4 4 6 6
3 2 2 2 3 4 5 5 4 2 2 2 2 2 4 5 6 6 3 3 4 4 3 3 3 4 4 4 5 3 3 4 3 3 2 1 2 3 4 3 2 3 4
Wind_Direction
113 104 97 90 87 95 105 102 99 97 88 75 68 71 60 46 31 26 7 13 16 15 20 45 55 54 46 44 44 46 46 50 46 32 25 25 26 20 15 14 12 13 14
121 120 112 104 98 106 122 119 113 107 99 90 75 64 61 45 34 23 13 2 5 8 10 24 44 44 42 39 35 30 19 18 25 23 15 8 6 4 7 9 12 8 4
133 133 128 125 125 118 116 108 100 95 93 85 80 63 52 42 40 21 12 6 353 359 7 16 25 31 31 23 18 20 16 3 0 2 2 358 354 352 359 6 2 359 354
126 130 131 141 133 119 114 115 113 103 101 94 85 68 40 29 32 10 9 14 4 3 356 6 6 9 15 8 359 358 3 13 11 2 355 350 356 359 356 351 346 342 340
116 123 130 136 127 122 116 120 110 121 129 116 112 82 6 290 276 343 356 13 4 24 6 0 1 359 354 346 343 340 340 350 345 347 352 353 353 350 348 344 336 331 331
101 110 110 108 120 122 120 124 125 104 127 126 91 24 327 276 248 231 307 349 352 32 29 17 356 346 348 341 333 329 324 328 335 324 332 332 330 329 334 332 329 324 322
88 102 100 99 98 136 153 147 132 119 96 100 84 2 338 229 199 203 284 285 333 343 16 18 352 353 333 336 332 326 313 311 315 317 312 312 310 314 315 319 322 319 317
69 99 105 119 118 120 113 132 126 134 109 102 122 109 331 327 311 226 226 224 245 283 304 324 330 342 326 321 326 331 316 306 307 309 303 304 305 303 305 308 311 312 312
76 69 97 126 140 143 167 177 162 153 164 181 128 156 172 232 297 291 245 240 229 247 262 279 297 310 306 306 307 319 320 315 310 308 306 295 297 300 304 304 304 306 308
90 81 92 99 151 171 180 195 174 175 162 177 195 279 220 174 188 287 281 255 259 263 266 284 278 270 270 274 294 311 317 316 315 311 304 297 291 294 297 298 297 300 303
58 54 71 106 128 142 178 185 182 179 183 177 176 179 189 14 204 206 264 282 293 261 251 257 256 253 254 256 266 289 306 314 313 312 311 307 297 292 292 293 293 294 297
34 31 33 74 134 167 172 205 203 193 199 180 182 183 174 178 195 204 242 274 280 280 269 249 245 250 246 242 266 295 301 305 308 309 308 306 303 298 297 296 296 294 293
348 317 347 327 291 281 200 190 183 204 199 191 200 211 213 222 202 209 225 264 279 290 278 250 241 252 261 253 267 286 291 299 302 305 306 305 304 299 298 296 295 295 297
286 318 325 316 311 307 242 194 186 210 199 213 218 212 214 222 212 212 203 213 283 282 252 253 251 244 254 262 282 288 282 295 296 299 300 298 299 294 295 293 290 291 294
343 9 0 6 356 11 58 142 210 219 195 225 232 223 226 233 223 232 230 212 210 258 264 253 261 262 274 268 284 274 275 289 293 295 296 295 297 289 285 286 287 288 289
88 65 339 336 5 11 338 159 213 233 191 235 241 231 239 241 228 229 232 238 231 231 254 261 269 288 293 298 298 289 276 290 290 292 295 294 297 290 282 283 286 286 286
145 183 237 268 287 292 297 238 260 209 215 245 256 240 249 244 228 227 232 234 238 236 255 275 275 290 288 291 297 291 283 273 279 291 294 295 293 294 288 288 287 288 289
194 195 196 202 240 253 245 228 239 235 221 235 256 257 261 254 246 240 233 236 240 241 243 269 282 286 284 282 281 286 294 290 279 290 292 292 291 295 291 288 288 288 289
214 198 192 204 229 239 239 241 237 243 236 234 245 252 259 253 257 260 252 246 248 255 245 255 274 283 288 286 294 293 290 288 292 292 290 291 293 295 293 289 288 287 287
215 222 228 230 231 233 234 239 244 254 256 256 252 253 253 243 246 251 251 249 252 261 257 251 267 281 287 285 289 300 307 309 304 298 286 288 295 296 289 287 286 284 283
228 229 231 244 248 236 231 248 259 253 255 263 264 260 258 255 256 257 258 257 252 258 267 260 268 281 282 281 285 293 292 309 302 290 290 290 288 280 275 274 275 275 277
230 221 221 221 234 242 245 252 255 245 247 250 261 273 270 253 263 275 278 275 260 252 258 262 268 262 270 273 284 283 293 306 301 308 310 296 284 276 270 258 275 279 278
223 227 231 232 244 249 245 252 257 244 231 236 244 259 270 280 279 274 283 288 279 271 258 253 262 268 270 267 269 278 277 276 280 290 300 289 280 275 276 273 282 280 279
214 228 235 242 255 257 260 263 269 248 232 234 240 242 252 266 259 264 270 278 279 277 269 257 250 266 268 268 263 265 272 281 285 281 266 279 291 282 288 275 274 276 279
218 227 231 230 242 255 256 263 272 252 237 247 251 248 248 248 255 265 258 259 278 283 290 283 281 282 285 288 287 286 278 281 288 289 273 263 288 298 286 268 266 272 281
220 227 238 235 238 247 250 258 266 244 241 253 260 255 254 256 261 267 246 238 259 272 278 295 297 301 296 293 294 273 261 263 271 282 269 274 293 318 301 281 271 271 273